Location: Cul de Sac
(18.0387°N, 63.0654°W)
Time: 17:42:38
(UTC+00:00)

NOAA 11 - Pass Details

Date: 29 October 2020
Orbit: 833 x 850 km, 98.4° (Epoch: 27 November)

Event Time Altitude Azimuth Distance (km) Brightness Sun altitude
Rises 22:15:37 0° 164° (SSE) 3,389 7.3 -8.8°
Reaches altitude 10° 22:17:59 10° 163° (SSE) 2,453 6.6 -9.4°
Maximum altitude 22:23:25 78° 77° (ENE) 860 4.1 -10.6°
Drops below altitude 10° 22:28:50 10° 352° (N) 2,447 6.6 -11.9°
Sets 22:31:12 0° 351° (N) 3,380 7.3 -12.4°
